Location: Unspecified
(38.0989°N, 0.6729°W)
Time: 18:21:23
(UTC+02:00)

Envisat - Pass Details

Date: 21 January 2022
Orbit: 764 x 765 km, 98.2° (Epoch: 28 May)

Event Time Altitude Azimuth Distance (km) Brightness Sun altitude
Rises 05:07:42 0° 24° (NNE) 3,235 6.5 -36.7°
Reaches altitude 10° 05:10:18 10° 35° (NE) 2,305 5.8 -36.2°
Maximum altitude 05:14:43 30° 96° (E) 1,360 4.7 -35.3°
Drops below altitude 10° 05:19:06 10° 156° (SSE) 2,292 5.7 -34.4°
Sets 05:21:39 0° 168° (SSE) 3,213 6.4 -33.9°
